Location: Belfast
(54.5830°N, 5.9330°W)
Time: 23:08:55
(UTC+00:00)

Coronas F rocket - Visible Passes

Search period start: 14 February 2016 00:00
Search period end: 24 February 2016 00:00
Orbit: 341 x 349 km, 82.5° (Epoch: 14 February)

Date Brightness Start Highest point End Pass type
(mag) Time Alt. Az. Time Alt. Az. Time Alt. Az.
14 Feb 1.3 05:52:49 20° NNW 05:54:38 89° WSW 05:57:29 10° S visible
14 Feb 1.5 19:17:39 10° SSW 19:20:28 76° WNW 19:23:20 10° N visible
15 Feb 4.5 04:46:24 17° ENE 04:46:28 17° ENE 04:48:26 10° ESE visible
15 Feb 2.1 06:17:59 26° WNW 06:18:47 31° W 06:21:22 10° SSW visible
15 Feb 3.0 18:10:43 10° SE 18:12:42 18° E 18:14:43 10° NE visible
15 Feb 3.6 19:42:15 10° SW 19:44:45 28° WNW 19:47:17 10° N visible
16 Feb 3.3 05:11:48 28° ESE 05:11:48 28° ESE 05:13:31 10° SE visible
16 Feb 3.4 06:43:23 13° WSW 06:43:23 13° WSW 06:44:16 10° WSW visible
16 Feb 1.7 18:33:58 10° S 18:36:40 43° E 18:39:25 10° NNE visible
16 Feb 4.8 20:07:41 10° W 20:09:08 13° WNW 20:10:34 10° NNW visible
17 Feb 3.9 05:37:25 13° S 05:37:25 13° S 05:37:49 10° S visible
17 Feb 1.8 18:57:55 10° SSW 19:00:43 64° WNW 19:03:34 10° N visible
18 Feb 3.9 19:22:28 10° SW 19:24:52 25° WNW 19:27:18 10° NNW visible
19 Feb 1.6 18:13:51 10° S 18:16:36 50° E 18:19:23 10° NNE visible
19 Feb 4.9 19:47:58 10° W 19:49:06 12° WNW 19:50:14 10° NW visible
20 Feb 2.2 18:37:43 10° SSW 18:40:30 55° WNW 18:43:19 10° N visible
21 Feb 4.2 19:02:11 10° WSW 19:04:30 22° WNW 19:06:49 10° NNW visible
22 Feb 5.0 19:27:52 10° WNW 19:28:34 11° WNW 19:29:17 10° NW visible
